Lancaster, PA

9:58 PM EDT on September 21, 2017 (GMT -0400)
Lancaster

Weather History for KLNS - October, 2011

Change the Weather History Date:

Thursday, October 20, 2011

  Actual Average Record
Temperature  
Mean Temperature 62 °F -  
Max Temperature 70 °F 61 °F 79 °F (2016)
Min Temperature 51 °F 41 °F 26 °F (1981)
Degree Days  
Heating Degree Days 3    
Growing Degree Days 12 (Base 50)    
Moisture  
Dew Point 52 °F    
Average Humidity 74    
Maximum Humidity 100    
Minimum Humidity 51    
Precipitation  
Precipitation 0.01 in - - ()
Sea Level Pressure  
Sea Level Pressure 29.43 in    
Wind  
Wind Speed 11 mph (SSW)    
Max Wind Speed 18 mph    
Max Gust Speed 26 mph    
Visibility 10 miles    
Events Rain    
Averages and records for this station are not official NWS values.
T = Trace of Precipitation, MM = Missing Value Source: NWS Daily Summary

Daily Weather History Graph

Daily Weather History Graph

Search for Another Location

Airport or City:

Trip Planner

Search our weather history database for the weather conditions in past years. The results will help you decide how hot, cold, wet, or windy it might be!

Date:

Astronomy

Oct. 20, 2011 Rise Set
Actual Time 7:20 AM EDT 6:18 PM EDT
Civil Twilight 6:53 AM EDT 6:46 PM EDT
Nautical Twilight 6:21 AM EDT 7:17 PM EDT
Astronomical Twilight 5:50 AM EDT 7:49 PM EDT
Moon 12:03 AM EDT (10/20) 2:26 PM EDT (10/20)
Length of Visible Light 11h 52m
Length of Day
10h 57m
Last Quarter, 44% of the Moon is Illuminated
Oct 20
Last Quarter
Oct 26
New
Nov 2
First Quarter
Nov 10
Full
Nov 18
Last Quarter

Hourly Weather History & Observations

Time (EDT) Temp. Dew Point Humidity Pressure Visibility Wind Dir Wind Speed Gust Speed Precip Events Conditions
12:25 AM 66.2 °F 66.2 °F 100% 29.26 in 10.0 mi SE 8.1 mph - 0.00 in   Overcast
12:42 AM 68.0 °F 66.2 °F 94% 29.25 in 10.0 mi SSE 9.2 mph - 0.00 in   Overcast
12:51 AM 69.8 °F 66.2 °F 88% 29.24 in 10.0 mi South 8.1 mph - 0.00 in   Overcast
12:53 AM 70.0 °F 66.9 °F 90% 29.24 in 10.0 mi SSE 9.2 mph - 0.00 in   Overcast
1:43 AM 69.8 °F 66.2 °F 88% 29.24 in 10.0 mi SSE 10.4 mph - N/A   Mostly Cloudy
1:53 AM 70.0 °F 66.9 °F 90% 29.24 in 10.0 mi South 13.8 mph 21.9 mph N/A   Mostly Cloudy
2:03 AM 69.8 °F 66.2 °F 88% 29.25 in 10.0 mi South 12.7 mph 25.3 mph N/A   Mostly Cloudy
2:27 AM 69.8 °F 64.4 °F 83% 29.25 in 10.0 mi South 11.5 mph - N/A   Overcast
2:53 AM 68.0 °F 64.9 °F 90% 29.26 in 10.0 mi South 9.2 mph - N/A   Overcast
3:53 AM 66.9 °F 62.1 °F 84% 29.26 in 10.0 mi SW 10.4 mph - N/A   Mostly Cloudy
4:53 AM 64.9 °F 60.1 °F 84% 29.27 in 10.0 mi SSW 6.9 mph - N/A   Clear
6:05 AM 62.6 °F 57.2 °F 82% 29.30 in 10.0 mi West 15.0 mph - N/A   Mostly Cloudy
6:53 AM 57.9 °F 55.0 °F 90% 29.33 in 10.0 mi West 8.1 mph - N/A   Overcast
7:53 AM 57.0 °F 51.1 °F 81% 29.37 in 10.0 mi WSW 11.5 mph - N/A   Mostly Cloudy
8:50 AM 57.2 °F 51.8 °F 82% 29.41 in 10.0 mi WSW 8.1 mph - N/A   Overcast
8:53 AM 57.0 °F 51.1 °F 81% 29.41 in 10.0 mi WSW 10.4 mph - N/A   Overcast
9:53 AM 54.0 °F 48.9 °F 83% 29.45 in 10.0 mi SW 11.5 mph - 0.01 in Rain Light Rain
10:53 AM 54.0 °F 46.0 °F 75% 29.47 in 10.0 mi SW 9.2 mph - 0.00 in Rain Light Rain
11:53 AM 55.9 °F 46.0 °F 69% 29.47 in 10.0 mi SSW 12.7 mph - 0.00 in   Overcast
12:53 PM 59.0 °F 41.0 °F 51% 29.47 in 10.0 mi SSW 13.8 mph 25.3 mph N/A   Mostly Cloudy
1:53 PM 57.9 °F 41.0 °F 53% 29.48 in 10.0 mi SW 18.4 mph 23.0 mph N/A   Overcast
2:53 PM 57.0 °F 41.0 °F 55% 29.50 in 10.0 mi SW 13.8 mph 20.7 mph N/A   Overcast
3:53 PM 57.0 °F 39.9 °F 53% 29.53 in 10.0 mi SSW 15.0 mph 23.0 mph N/A   Overcast
4:53 PM 57.0 °F 39.0 °F 51% 29.55 in 10.0 mi SSW 17.3 mph 26.5 mph N/A   Overcast
5:53 PM 55.9 °F 39.9 °F 55% 29.58 in 10.0 mi SSW 10.4 mph 20.7 mph N/A   Overcast
6:53 PM 55.0 °F 39.9 °F 57% 29.62 in 10.0 mi SSW 10.4 mph - N/A   Overcast
7:53 PM 55.0 °F 41.0 °F 59% 29.65 in 10.0 mi SSW 8.1 mph - N/A   Overcast
8:53 PM 54.0 °F 41.0 °F 62% 29.67 in 10.0 mi SW 10.4 mph - N/A   Overcast
9:53 PM 54.0 °F 39.9 °F 59% 29.70 in 10.0 mi SW 11.5 mph - N/A   Overcast
10:53 PM 54.0 °F 37.0 °F 53% 29.73 in 10.0 mi WSW 17.3 mph 23.0 mph N/A   Overcast
11:53 PM 51.1 °F 37.0 °F 59% 29.74 in 10.0 mi West 12.7 mph 25.3 mph N/A   Scattered Clouds